Regional Weather Roundup
Issued by NWS Northern Indiana

Home | Current Version | Previous Version | Graphics & Text | Print | Product List | Glossary On
Versions: 1 2 3 4 5 6 7 8 9 10 11 12 13 14 15 16 17 18 19 20 21 22 23 24 25 26 27 28 29 30 31 32 33 34 35 36 37 38 39 40 41 42 43 44 45 46 47 48 49 50
000
ASUS43 KIWX 021410
RWRIWX

KIWX WEATHER ROUNDUP
NATIONAL WEATHER SERVICE NORTHERN INDIANA
1000 AM EDT SUN AUG 02 2015

NOTE: "FAIR" INDICATES FEW OR NO CLOUDS BELOW 12,000 FEET WITH NO
SIGNIFICANT WEATHER AND/OR OBSTRUCTIONS TO VISIBILITY.

* THESE STATIONS ARE NOT UNDER NWS QUALITY CONTROL. THEY ALSO MAY NOT
  REPORT WEATHER SUCH AS PRECIPITATION OR FOG.

INZ001>027-021500-
NORTHERN INDIANA

CITY           SKY/WX    TMP DP  RH WIND       PRES   REMARKS
GARY*          MOSUNNY   79  66  65 SW12      29.87F
VALPARAISO     SUNNY     77  67  71 SW13      29.90F
MICHIGAN CITY* SUNNY     77  66  69 SW10      29.89S
LAPORTE*       SUNNY     77  69  75 SW7       29.91S
KNOX*          SUNNY     75  64  69 SW13      29.90S
SOUTH BEND     MOSUNNY   76  66  71 SW15      29.90S
ELKHART*       SUNNY     79  66  65 SW12      29.91S
GOSHEN         SUNNY     76  67  73 SW10      29.91S
MONTICELLO*    SUNNY     74  66  75 SW9       29.93S
LOGANSPORT*    SUNNY     73  61  64 SW9       29.95S
ROCHESTER*     SUNNY     77  66  69 SW10      29.93F
WARSAW*        SUNNY     77  64  65 SW9       29.92F
ANGOLA*        SUNNY     79  70  73 W9        29.91F
FORT WAYNE     MOSUNNY   76  64  66 SW9       29.95S
HUNTINGTON*    SUNNY     75  63  65 SW7       29.95S
PERU/GRISSOM   SUNNY     77  65  65 W12       29.94R
MARION*        SUNNY     74  62  66 W9        29.97R

$$
INZ028>050-021500-
CENTRAL INDIANA

CITY           SKY/WX    TMP DP  RH WIND       PRES   REMARKS
LAFAYETTE      SUNNY     74  65  73 W8        29.94S
KOKOMO*        SUNNY     77  63  61 SW13      29.96R
MUNCIE*        SUNNY     74  61  63 SW8G17    29.97S
INDIANAPOLIS   MOSUNNY   77  62  59 SW10      29.97R

$$
MIZ043>046-050>051-056>058-064>065-071>073-077>080-021500-
SOUTHWEST LOWER MICHIGAN

CITY           SKY/WX    TMP DP  RH WIND       PRES   REMARKS
BATTLE CREEK   SUNNY     77  68  73 SW14      29.87F
BENTON HARBOR  MOSUNNY   80  68  66 SW15G21   29.86S
COLDWATER*     SUNNY     75  67  77 SW9       29.90S
HILLSDALE*     SUNNY     76  69  77 SW8       29.90F
HOLLAND        MOSUNNY   80  70  71 SW15      29.83S
GRAND RAPIDS   PTSUNNY   78  69  73 SW17G23   29.82F
KALAMAZOO      SUNNY     78  68  71 SW12      29.86F
STURGIS*       SUNNY     73  70  88 SW10      29.90S
THREE RIVERS*  FAIR      75  68  77 SW9       29.89F

$$
OHZ001>008-015>018-024>025-021500-
NORTHWEST OHIO

CITY           SKY/WX    TMP DP  RH WIND       PRES   REMARKS
WAUSEON*       FAIR      75  68  78 SW8G14    29.91F
DEFIANCE       SUNNY     79  67  66 VRB3      29.92F
FINDLAY        MOSUNNY   77  65  66 W13       29.94S
TOLEDO EXPRESS MOSUNNY   74  64  71 SW12      29.91S
TOLEDO METCALF MOSUNNY   75  63  66 SW12      29.92S
LIMA           SUNNY     76  64  66 W7        29.97R

$$
AND FOR LAKE MICHIGAN COASTAL AND OPEN LAKE BUOY OBSERVATIONS

STATION/POSITION TEMP    WIND        PRES    VSBY  WAVE
                 AIR SEA DIR/SP/G                  HT/PER
                 (F)     (DEG/KT/KT) (MB)    (MI)  (FT/S)
CALUMET HARBOR    75     200/  7/  9   N/A
MICHIGAN CITY     73     180/ 11/ 13   N/A
BURNS HARBOR      74     200/ 10/ 13 1012.2S
SAINT JOSEPH      75     180/ 14/ 20 1011.2F
4 MI NW BRIDGMAN  74 72  240/ 14/ 16   N/A           2/ 4
MICHIGAN CITY     75 74  210/ 12/ 14   N/A           2/ 3
MICHIGAN CITY CG  75 75  230/  9       N/A    3 1/2  1

$$
&&


USA.gov is the U.S. government's official web portal to all federal, state and local government web resources and services.